DW2770 Weather Reports


time (UTC)temp
F
wind
direction
speed
knots
gust
knots
rain 1hr
in
rain 24hr
in
rain mn
in
humidity
%
barometer
mb
20260508074506 69 86 1.7 6.1 0.00 0.00 0.00 72 1010.8
20260508073010 68 55 2.6 5.2 0.00 0.00 0.00 73 1010.6
20260508071515 69 63 0.9 5.2 0.00 0.00 0.00 73 1010.7
20260508070016 69 88 1.7 4.3 0.00 0.00 0.00 70 1010.6
20260508064522 69 71 0.0 2.6 0.00 0.00 0.00 70 1010.6
20260508063007 68 102 1.7 4.3 0.00 0.00 0.00 72 1010.4
20260508061518 68 74 1.7 3.5 0.00 0.00 0.00 72 1010.2
20260508060019 67 94 1.7 6.1 0.00 0.00 0.00 74 1010.1
20260508054506 68 117 1.7 3.5 0.00 0.00 0.00 74 1009.9
20260508053010 67 69 0.0 1.7 0.00 0.00 0.00 76 1009.7
20260508051513 66 86 0.0 0.0 0.00 0.00 0.00 77 1009.7
20260508050008 65 86 0.0 1.7 0.00 0.00 0.00 78 1009.6
20260508044506 65 96 0.9 2.6 0.00 0.00 0.00 75 1009.5
20260508043006 65 190 0.0 0.9 0.00 0.00 0.00 75 1009.4
20260508041508 65 111 0.0 1.7 0.00 0.00 0.00 76 1009.3
20260508040034 65 61 0.0 1.7 0.00 0.00 0.00 77 1009.2
20260508034504 65 49 0.0 0.0 0.00 0.00 0.00 78 1009.0
20260508033007 65 91 0.0 1.7 0.00 0.00 0.00 79 1008.9
20260508031514 65 66 0.0 3.5 0.00 0.00 0.00 79 1008.5
20260508030012 65 92 0.9 7.0 0.00 0.00 0.00 77 1008.3
20260508024525 66 90 0.9 3.5 0.00 0.00 0.00 67 1008.5
20260508023009 67 170 0.0 2.6 0.00 0.00 0.00 65 1007.9
20260508021508 67 189 0.9 3.5 0.00 0.00 0.00 64 1007.9
20260508020010 67 203 1.7 2.6 0.00 0.00 0.00 65 1008.0
20260508014514 67 246 1.7 6.1 0.00 0.00 0.00 65 1008.0
20260508013019 67 278 1.7 6.1 0.00 0.00 0.00 66 1007.9
20260508011506 67 231 3.5 7.0 0.00 0.00 0.00 63 1007.7
20260508010014 67 97 0.0 1.7 0.00 0.00 0.00 63 1007.6
20260508004519 67 123 0.0 0.0 0.00 0.00 0.00 65 1007.6
20260508003016 67 142 0.0 0.9 0.00 0.00 0.00 65 1007.9
20260508001522 67 196 0.9 4.3 0.00 0.00 0.00 64 1008.2
20260508000009 68 92 0.9 6.1 0.00 0.00 0.00 63 1008.3
20260507234513 69 89 0.9 4.3 0.00 0.00 0.00 62 1008.6
20260507233019 70 123 0.0 8.7 0.00 0.00 0.00 58 1008.8
20260507231502 70 165 7.0 17.4 0.00 0.00 0.00 57 1008.9
20260507224507 69 240 7.0 13.0 0.00 0.00 0.00 61 1009.8
20260507223007 68 244 6.1 10.4 0.00 0.00 0.00 61 1009.9
20260507221504 68 248 2.6 6.1 0.00 0.00 0.00 60 1009.9
20260507220002 68 247 2.6 4.3 0.00 0.00 0.00 59 1009.2
20260507213009 68 196 0.9 3.5 0.00 0.00 0.00 61 1008.8
20260507211504 68 173 0.0 1.7 0.00 0.00 0.00 61 1008.7
20260507210005 68 175 0.0 3.5 0.00 0.00 0.00 60 1008.7
20260507204505 68 200 0.9 3.5 0.00 0.00 0.00 59 1008.9
20260507201507 68 196 1.7 5.2 0.00 0.00 0.00 59 1009.0
20260507200004 68 219 0.0 5.2 0.00 0.00 0.00 56 1008.6
20260507194520 68 193 0.9 3.5 0.00 0.00 0.00 59 1008.6
20260507193008 68 198 0.9 3.5 0.00 0.00 0.00 62 1008.4
20260507190011 68 237 1.7 4.3 0.00 0.00 0.00 60 1008.0
20260507184504 68 201 0.9 2.6 0.00 0.00 0.00 59 1007.8
20260507183002 68 217 0.0 2.6 0.00 0.00 0.00 61 1007.8
20260507181500 68 233 1.7 3.5 0.00 0.00 0.00 62 1007.8
20260507180000 69 244 1.7 3.5 0.00 0.00 0.00 58 1007.4
20260507174509 70 205 0.0 0.0 0.00 0.00 0.00 58 1007.2
20260507173011 71 82 0.9 1.7 0.00 0.00 0.00 57 1007.3
20260507171501 71 221 0.0 2.6 0.00 0.00 0.00 57 1007.3
20260507170001 71 213 0.9 1.7 0.00 0.00 0.00 56 1007.4
20260507164507 71 313 0.0 1.7 0.00 0.00 0.00 54 1007.5
20260507163004 71 323 0.9 2.6 0.00 0.00 0.00 56 1007.4
20260507161505 72 321 1.7 3.5 0.00 0.00 0.00 55 1007.3
20260507155959 71 294 1.7 3.5 0.00 0.00 0.00 58 1007.4
20260507154505 71 261 1.7 7.0 0.00 0.00 0.00 57 1007.8
20260507153004 71 164 4.3 7.8 0.00 0.00 0.00 58 1007.6
20260507151506 70 244 4.3 7.8 0.00 0.00 0.00 60 1007.5
20260507150011 71 249 5.2 12.2 0.00 0.00 0.00 55 1007.7
20260507144500 74 207 5.2 10.4 0.00 0.00 0.00 51 1007.4
20260507143001 74 325 1.7 13.0 0.00 0.00 0.00 51 1007.4
20260507134510 76 205 2.6 9.6 0.00 0.00 0.00 47 1007.3
20260507133001 76 159 4.3 9.6 0.00 0.00 0.00 46 1007.6
20260507131515 74 202 2.6 7.8 0.00 0.00 0.00 48 1008.0
20260507124513 72 96 4.3 8.7 0.00 0.00 0.00 47 1008.3
20260507123014 73 95 2.6 8.7 0.00 0.00 0.00 46 1008.4
20260507121508 73 111 4.3 7.8 0.00 0.00 0.00 49 1008.3
20260507120007 72 103 4.3 7.8 0.00 0.00 0.00 49 1008.1
20260507114506 72 138 2.6 7.8 0.00 0.00 0.00 51 1008.2
20260507113032 72 109 3.5 8.7 0.00 0.00 0.00 54 1008.3
20260507111516 72 77 6.1 13.9 0.00 0.00 0.00 53 1008.2
20260507110006 71 127 5.2 8.7 0.00 0.00 0.00 56 1008.4
20260507104504 73 75 3.5 7.0 0.00 0.00 0.00 53 1008.5
20260507103008 76 137 5.2 11.3 0.00 0.00 0.00 45 1008.6
20260507101517 74 360 3.5 9.6 0.00 0.00 0.00 38 1008.3
20260507100020 78 38 2.6 7.8 0.00 0.00 0.00 30 1008.6
20260507094503 77 163 1.7 12.2 0.00 0.00 0.00 27 1008.7
20260507093008 76 96 2.6 16.5 0.00 0.00 0.00 29 1008.6
20260507091511 77 189 1.7 10.4 0.00 0.00 0.00 29 1009.2
20260507090016 76 88 1.7 10.4 0.00 0.00 0.00 31 1009.2
20260507084520 75 68 5.2 13.0 0.00 0.00 0.00 34 1009.3
20260507083005 74 215 6.1 13.0 0.00 0.00 0.00 34 1009.3
20260507081508 73 96 9.6 18.2 0.00 0.00 0.00 35 1009.3
20260507080015 74 94 2.6 9.6 0.00 0.00 0.00 32 1009.7